TimeEST,TemperatureF,Dew PointF,Humidity,Sea Level PressureIn,VisibilityMPH,Wind Direction,Wind SpeedMPH,Gust SpeedMPH,PrecipitationIn,Events,Conditions,WindDirDegrees,DateUTC
12:43 AM,46.4,46.4,100,30.08,10.0,Calm,Calm,-,N/A,,Overcast,0,2011-12-23 05:43:00
12:53 AM,48.0,46.0,93,30.08,10.0,Calm,Calm,-,N/A,,Overcast,0,2011-12-23 05:53:00
1:53 AM,48.0,46.0,93,30.10,10.0,NW,3.5,-,N/A,,Overcast,310,2011-12-23 06:53:00
2:08 AM,48.2,46.4,93,30.10,6.0,Calm,Calm,-,0.00,Rain,Light Rain,0,2011-12-23 07:08:00
2:20 AM,48.2,46.4,93,30.11,4.0,Calm,Calm,-,0.00,Rain,Light Rain,0,2011-12-23 07:20:00
2:41 AM,48.2,46.4,93,30.12,10.0,Calm,Calm,-,0.01,,Overcast,0,2011-12-23 07:41:00
2:53 AM,48.0,46.9,96,30.12,10.0,Calm,Calm,-,0.01,,Overcast,0,2011-12-23 07:53:00
3:53 AM,46.9,44.1,90,30.14,10.0,Calm,Calm,-,0.00,Rain,Light Rain,0,2011-12-23 08:53:00
4:53 AM,48.0,44.1,86,30.14,10.0,Calm,Calm,-,0.00,Rain,Light Rain,0,2011-12-23 09:53:00
5:53 AM,46.9,44.1,90,30.18,10.0,Calm,Calm,-,0.00,,Overcast,0,2011-12-23 10:53:00
6:53 AM,46.9,43.0,86,30.20,10.0,NNE,3.5,-,N/A,,Overcast,20,2011-12-23 11:53:00
7:53 AM,46.9,42.1,83,30.23,10.0,North,3.5,-,N/A,,Overcast,360,2011-12-23 12:53:00
8:53 AM,46.9,43.0,86,30.25,10.0,Calm,Calm,-,N/A,,Overcast,0,2011-12-23 13:53:00
9:53 AM,46.9,42.1,83,30.27,10.0,NNW,3.5,-,N/A,,Overcast,330,2011-12-23 14:53:00
10:43 AM,46.4,41.0,81,30.29,10.0,North,4.6,-,N/A,,Overcast,360,2011-12-23 15:43:00
10:50 AM,46.4,41.0,81,30.29,10.0,North,4.6,-,N/A,,Overcast,360,2011-12-23 15:50:00
10:53 AM,46.9,41.0,80,30.29,10.0,North,4.6,-,N/A,,Overcast,350,2011-12-23 15:53:00
11:53 AM,46.9,42.1,83,30.27,10.0,North,4.6,-,N/A,,Overcast,360,2011-12-23 16:53:00
12:53 PM,48.0,39.9,74,30.25,10.0,North,3.5,-,N/A,,Overcast,10,2011-12-23 17:53:00
1:53 PM,48.9,39.9,71,30.22,10.0,Calm,Calm,-,N/A,,Overcast,0,2011-12-23 18:53:00
2:53 PM,50.0,39.9,68,30.23,10.0,Calm,Calm,-,N/A,,Overcast,0,2011-12-23 19:53:00
3:53 PM,48.9,39.9,71,30.24,10.0,Calm,Calm,-,N/A,,Mostly Cloudy,0,2011-12-23 20:53:00
4:53 PM,48.0,39.9,74,30.25,10.0,West,3.5,-,N/A,,Mostly Cloudy,280,2011-12-23 21:53:00
5:53 PM,48.0,41.0,77,30.27,10.0,West,3.5,-,N/A,,Mostly Cloudy,270,2011-12-23 22:53:00
6:53 PM,46.9,41.0,80,30.28,10.0,West,3.5,-,N/A,,Overcast,270,2011-12-23 23:53:00
7:53 PM,46.9,41.0,80,30.29,10.0,West,3.5,-,N/A,,Overcast,260,2011-12-24 00:53:00
8:53 PM,46.0,39.9,79,30.30,10.0,West,3.5,-,N/A,,Overcast,270,2011-12-24 01:53:00
9:53 PM,45.0,39.0,80,30.32,10.0,West,8.1,-,N/A,,Overcast,270,2011-12-24 02:53:00
10:53 PM,43.0,37.0,80,30.34,10.0,West,6.9,-,N/A,,Mostly Cloudy,260,2011-12-24 03:53:00
11:53 PM,42.1,37.0,82,30.34,10.0,WSW,4.6,-,N/A,,Overcast,240,2011-12-24 04:53:00